WEATHER DATA

YESTERDAY
Time Temp. Dewp. Hum. Bar.
00:14 20.6 13.3 63 1013.1
00:24 20.4 13.1 63 1013.1
00:34 20.2 13.2 64 1013.1
00:43 20.1 13.1 64 1013.2
00:54 19.9 12.9 64 1013.3
01:04 19.8 12.8 64 1013.3
01:14 19.6 12.6 64 1013.2
01:24 19.4 12.7 65 1013.3
01:34 19.3 12.6 65 1013.3
01:44 19.1 12.6 66 1013.2
01:54 19 12.5 66 1013.1
02:05 18.8 12.3 66 1013.1
02:15 18.6 12.4 67 1013
02:34 18.3 12.1 67 1012.9
02:45 18.1 12.1 68 1012.9
02:55 18 12 68 1012.8
03:05 17.8 11.8 68 1012.8
03:15 17.7 11.9 69 1012.8
03:25 17.6 11.9 69 1012.8
03:35 17.4 11.7 69 1012.8
03:45 17.3 11.8 70 1012.8
03:56 17.2 11.7 70 1012.6
04:05 17.1 11.6 70 1012.7
04:15 17 11.7 71 1012.7
04:36 16.7 11.4 71 1012.6
04:46 16.6 11.3 71 1012.6
05:06 16.4 11.3 72 1012.5
05:16 16.3 11.2 72 1012.5
05:26 16.2 11.2 72 1012.5
05:37 16.1 11.1 72 1012.5
05:46 15.9 11.1 73 1012.5
05:56 15.9 11.1 73 1012.4
06:06 15.8 11 73 1012.4
06:17 15.8 11 73 1012.3
06:27 15.8 11.2 74 1012.3
06:36 15.8 11.2 74 1012.2
06:47 15.8 11.2 74 1012.1
06:57 15.8 11.2 74 1012.1
07:07 15.9 11.3 74 1012.1
07:17 15.9 11.5 75 1012.2
07:28 16 11.6 75 1012.2
07:37 16.1 11.7 75 1012.1
07:47 16.2 11.8 75 1012.1
07:58 16.4 12 75 1012.1
08:08 16.5 12.1 75 1012.1
08:18 16.6 12.2 75 1012.1
08:27 16.8 12.3 75 1012.1
08:38 17 12.5 75 1012.1
08:48 17.2 12.7 75 1012
08:58 17.4 12.7 74 1012
09:08 17.7 13 74 1012
09:18 17.9 13.2 74 1011.9
09:28 18.2 13.3 73 1012
09:38 18.5 13.6 73 1012
09:49 18.8 13.7 72 1011.9
09:59 19 13.8 72 1011.9
10:09 19.3 13.9 71 1011.8
10:18 19.6 14.2 71 1011.9
10:29 19.9 14.3 70 1011.8
10:39 20.2 14.6 70 1011.7
10:49 20.6 14.7 69 1011.6
11:00 21.1 15 68 1011.5
11:09 21.6 15.4 68 1011.4
11:19 22.1 15.5 66 1011.4
11:29 22.5 15.4 64 1011.4
11:40 23.1 15.2 61 1011.3
11:50 23.5 15.3 60 1011.3
11:59 23.9 15.1 58 1011.3
12:10 24.4 15.3 57 1011.1
12:20 24.9 15.5 56 1011.1
12:30 25.4 15.7 55 1011
12:39 25.8 16.1 55 1010.9
12:50 26.1 15.5 52 1010.8
13:00 26.5 15.5 51 1010.8
13:10 26.9 15.6 50 1010.7
13:21 27.3 15.3 48 1010.6
13:31 27.7 15.4 47 1010.5
13:40 28 15.3 46 1010.3
13:50 28.3 15.2 45 1010.2
14:01 28.5 15.1 44 1010.1
14:11 28.8 15 43 1010
14:20 29 15.2 43 1009.9
14:31 29.1 14.9 42 1009.9
14:41 29.2 14.6 41 1009.8
14:51 29.3 14.7 41 1009.7
15:01 29.7 15.1 41 1009.6
15:11 29.9 15.2 41 1009.5
15:21 30.1 15.4 41 1009.5
15:31 30.4 15.3 40 1009.3
15:41 30.7 15.6 40 1009.2
15:51 30.8 15.3 39 1009.2
16:01 31 15.4 39 1009
16:11 31.2 15.6 39 1008.9
16:22 31.5 15.5 38 1008.7
16:32 31.7 15.6 38 1008.6
16:41 31.8 15.7 38 1008.4
16:52 32 15.5 37 1008.3
17:02 32.1 15.6 37 1008.3
17:12 32.1 15.6 37 1008.2
17:22 31.8 15.7 38 1008.2
17:32 31.5 15.9 39 1008.2
17:42 31.1 15.5 39 1008.2
17:52 30.9 15.7 40 1008.2
18:02 31.2 16 40 1008
18:13 31.2 16 40 1008
18:22 31.1 15.9 40 1007.9
18:32 30.7 15.6 40 1007.9
18:43 30.4 15.3 40 1007.9
18:53 30.1 15.4 41 1007.7
19:03 29.8 14.8 40 1007.7
19:13 29.5 14.9 41 1007.7
19:23 29.2 14.6 41 1007.7
19:33 28.8 14.6 42 1007.9
19:43 28.6 14.4 42 1008.2
19:54 28 14.6 44 1008.2
20:03 27.6 14.6 45 1008.3
20:23 26.9 14.3 46 1008.2
20:34 26.6 14 46 1008.1
20:44 26.4 13.9 46 1008.1
20:53 26.2 14 47 1008.3
21:04 25.9 13.7 47 1008.4
21:14 25.7 13.9 48 1008.4
21:24 25.5 14 49 1008.4
21:34 25.3 14.1 50 1008.6
21:44 25.2 14.4 51 1008.7
21:54 25 14.2 51 1008.8
22:04 24.9 14.4 52 1008.7
22:25 24.3 14.1 53 1008.6
22:34 24.2 14.3 54 1008.4
22:44 24 14.4 55 1008.4
22:55 23.9 14.3 55 1008.4
23:05 23.6 14.3 56 1008.6
23:14 23.4 14.4 57 1008.4
23:25 23.2 14.5 58 1008.4
23:35 23 14.3 58 1008.3
23:45 22.9 14.2 58 1008.3
23:55 22.8 14.4 59 1008.3

DAY STATISTIC

2018-07-20
TEMPERATURE
AVERAGE
23.1
HIGH
32.1
17:02
LOW
15.8
06:06
PRESSURE
AVERAGE
1010.6
HIGH
1013.3
00:54
LOW
1007.7
18:53
DEWPOINT
AVERAGE
13.8
HIGH
16.1
12:39
LOW
11.0
06:06
HUMIDITY
AVERAGE
58
HIGH
75
07:17
LOW
37
16:52
TEMPERATURE (°C)
LOW
15.8
HIGH
32.1
AVERAGE
23.1
PRESSURE (hpa)
LOW
1007.7
HIGH
1013.3
AVERAGE
1010.6
DEVICE